Tracking 29892 objects as of 21-Nov-2024
HD Live streaming from Space Station
objects crossing your sky now

SL-19 R/B

Track SL-19 R/B now!
10-day predictions


NORAD ID: 36039
Int'l Code: 2009-059D
Perigee: 505.4 km
Apogee: 686.8 km
Inclination: 98.4 °
Period: 96.5 minutes
Semi major axis: 6967 km
RCS: 5.376 m2 (large)
Launch date: November 2, 2009
Source: Commonwealth of Independent States (former USSR) (CIS)
Launch site: PLESETSK MISSILE AND SPACE COMPLEX (PKMTR)

Note: This is a ROCKET BODY
Your satellite tracking list
Your tracking list is empty




NASA's NSSDC Master Catalog

Two Line Element Set (TLE):
1 36039U 09059D   24325.54902346  .00002419  00000-0  20389-3 0  9994
2 36039  98.4118 182.9475 0130219  84.6083 276.9974 14.92881148817034
Source of the keplerian elements: AFSPC